Location: Jaite
(41.2884°N, 81.5737°W)
Time: 03:04:02
(UTC+00:00)

Daily predictions for brighter satellites

Satellite Brightness Start Highest point End
(mag) Time Altitude Azimuth Time Altitude Azimuth Time Altitude Azimuth
Starlink E 4.1 00:00:12 10° W 00:02:48 29° NNW 00:03:13 28° NNW
Starlink J 4.1 00:01:21 10° W 00:03:56 29° NNW 00:04:18 28° NNW
Starlink V 4.2 00:02:29 10° W 00:05:03 28° NNW 00:05:23 27° NNW
Okean-O 4.4 00:01:45 10° SSW 00:05:46 34° W 00:09:48 10° NNW
Starlink H 4.2 00:03:39 10° W 00:06:12 28° NNW 00:06:29 27° NNW
Cosmos 1602 Rocket 4.4 00:01:58 10° SSW 00:06:16 51° W 00:10:34 10° N
Starlink AR 4.4 00:04:45 10° W 00:06:42 22° NNW 00:06:42 22° NNW
Starlink F 4.2 00:04:49 10° W 00:07:22 27° NNW 00:07:36 27° NNW
Meteor 2-10 Rocket 4.0 00:02:29 10° N 00:07:29 37° ENE 00:07:42 36° E
Starlink G 4.3 00:05:58 10° W 00:08:31 27° NNW 00:08:42 26° NNW
Starlink L 4.3 00:07:09 10° W 00:09:40 26° NNW 00:09:49 26° NNW
Cosmos-2242 3.8 00:06:02 10° N 00:15:46 - SSE 00:08:49 33° NNE
Cosmos 1626 3.9 00:07:24 10° SW 00:10:46 33° WNW 00:14:09 10° NNW
Starlink A 4.4 00:08:19 10° W 00:10:50 26° NNW 00:10:56 26° NNW
Starlink R 4.4 00:09:31 10° W 00:12:00 25° NNW 00:12:03 25° NNW
Cosmos 1269 Rocket 4.0 00:06:56 10° NNW 00:12:09 59° ENE 00:17:03 12° SSE
Starlink K 4.5 00:10:39 10° W 00:13:08 25° NNW 00:13:08 25° NNW
SL-16 R/B 3.7 00:09:02 10° N 00:11:32 19° NNE 00:11:32 19° NNE
CSL-04 Rocket 3.7 00:08:35 10° SSE 00:14:01 83° WSW 00:19:35 10° NNW
COSMO-SKYMED 1 4.0 00:10:06 10° N 00:14:08 38° WNW 00:18:07 10° SW
Cosmos 2219 3.1 00:08:47 10° SSW 00:14:22 75° ESE 00:17:28 28° NNE
Cosmos 1953 Rocket 3.8 00:12:36 10° SSE 00:16:24 47° ESE 00:16:24 47° ESE
Cosmos 2366 rocket 4.0 00:13:27 10° SSE 00:19:24 54° E 00:24:44 14° NNE
Meteor 2-1 Rocket 4.3 00:15:17 10° NNW 00:20:47 74° W 00:26:17 10° S
Cosmos 1758 Rocket 3.5 00:18:20 10° S 00:22:39 81° W 00:25:01 26° N
ATLAS 5 CENTAUR R/B 4.2 00:25:41 10° WNW 00:27:44 13° NNW 00:29:53 10° N
Cosmos 2297 Rocket 2.0 00:28:36 10° SSW 00:34:13 76° ESE 00:35:30 54° NE
Cosmos 1980 3.6 00:30:44 10° NNW 00:36:28 86° ENE 00:39:24 30° SSE
Cosmos 1461 4.5 00:33:51 10° NW 00:37:52 36° WSW 00:42:01 10° S
Cosmos 1932 4.4 00:32:40 10° SSW 00:38:57 70° ESE 00:40:13 56° ENE
Atlas Centaur 2 4.4 00:37:30 10° S 00:39:42 13° SSE 00:39:42 13° SSE
COSMOS 2428 4.3 00:38:26 10° NW 00:43:34 34° WSW 00:48:39 10° SSW
Cosmos 1727 Rocket 4.5 00:38:39 10° N 00:42:50 41° NNE 00:42:50 41° NNE
Cosmos 724 4.4 00:39:18 10° SW 00:45:17 75° WNW 00:47:02 47° NNE
Cosmos 2227 Rocket 2.0 00:40:11 10° SSW 00:45:50 85° ESE 00:46:28 71° NE
Cosmos 2219 Rocket 4.2 00:47:42 10° NW 00:52:24 27° WSW 00:57:05 10° SSW
Ariane Rocket 3.0 00:53:43 69° SSW 00:54:15 77° WSW 00:59:21 10° NNW
IRS-1A Rocket 4.2 00:48:53 10° SSE 00:54:44 86° WSW 01:00:30 10° NNW
SL-8 Rocket 4.5 00:52:12 10° SSW 00:58:26 60° W 01:04:40 10° N
DELTA 2 R/B (1) 4.0 01:00:01 10° WSW 01:04:41 57° SW 01:04:41 57° SW
ADEOS Rocket 4.0 01:21:39 13° N 01:27:07 47° WNW 01:33:48 10° SW
Cosmos 2237 Rocket 3.8 01:34:02 10° NW 01:38:54 31° WSW 01:39:55 29° WSW
USA 215 4.0 09:20:29 10° E 09:26:03 45° NE 09:26:03 45° NE
Cosmos 2297 Rocket 3.7 09:29:07 33° E 09:29:07 33° E 09:33:12 10° SE
Cosmos 2227 Rocket 3.3 09:40:07 40° ENE 09:40:07 40° ENE 09:45:00 10° SE
Lacrosse 5 rocket 4.2 09:57:51 13° NNE 09:57:51 13° NNE 09:58:24 10° NNE
Cosmos 1656 4.3 10:00:16 49° NE 10:00:16 49° NE 10:04:21 10° NNE
SKYMED 2 4.4 10:16:30 10° SSE 10:20:41 49° ENE 10:21:31 42° NE
Cosmos 2344 3.6 10:15:23 19° SSW 10:21:04 77° ESE 10:28:58 10° NE
Okean O Rocket 3.8 10:22:09 10° NE 10:25:53 26° E 10:29:34 10° SSE
Meteor 1-24 Rocket 3.6 10:26:53 70° WNW 10:27:20 75° W 10:33:12 10° S
Meteor 2-15 Rocket 4.3 10:26:51 62° WSW 10:27:31 68° W 10:33:40 10° N
Cosmos 1980 Rocket 3.7 10:23:16 10° S 10:28:23 36° ESE 10:33:32 10° NE
Cosmos 2184 Rocket 3.8 10:29:39 10° N 10:35:50 78° W 10:42:03 10° S
Cosmos 1697 Rocket 2.7 10:31:52 10° SSW 10:37:28 81° ESE 10:43:06 10° NNE
FENGYUN 3A 4.0 10:33:02 10° NNE 10:38:25 65° E 10:43:47 10° S
Cosmos 1626 Rocket 3.4 10:38:35 87° S 10:38:35 87° S 10:42:52 10° S
Meteor 1-22 Rocket 4.4 10:40:30 50° WSW 10:41:22 54° WNW 10:47:20 10° N
Cosmos 1470 3.5 10:38:49 10° S 10:43:59 44° N 10:46:47 10° N
Cosmos 2154 Rocket 4.1 10:37:14 10° N 10:43:28 77° E 10:49:39 10° SSE
NOSS 2-2 (C) 3.2 10:50:12 54° S 10:50:52 72° ESE 10:54:43 10° NE
Cosmos 2219 4.1 10:53:51 31° SW 10:53:51 31° SW 10:57:49 10° SSW
Cosmos 2082 3.6 10:54:46 25° NNW 10:58:12 80° WSW 11:03:53 10° SSE
CZ-4B DEB 4.2 10:53:34 10° NNE 10:59:10 89° ESE 11:04:42 10° SSW
Cosmos 1610 Rocket 4.4 10:55:03 10° NNW 11:01:18 73° W 11:07:34 10° S
NOSS 2-2 (E) 3.0 11:01:47 62° W 11:02:07 67° NW 11:06:06 10° NNE
BREEZE-M DEB (TANK) 2.9 11:02:52 42° NW 11:03:36 48° NNW 11:11:44 10° ENE
ATLAS 3B R/B 4.4 11:00:33 10° NNW 11:05:59 25° NE 11:11:30 10° E
SL-14 R/B 4.5 11:07:33 26° SW 11:07:33 26° SW 11:09:36 10° SSW
EXPRESS MD2 3.9 11:08:43 29° N 11:08:43 29° N 11:10:24 10° NE
Cosmos 2074 Rocket 4.3 11:02:28 10° NNW 11:08:15 41° W 11:14:00 10° SSW
COSMO-SKYMED 1 2.7 11:04:36 10° S 11:08:47 48° W 11:10:10 35° NW
USA 215 3.3 11:03:05 10° SSE 11:09:30 60° SW 11:13:25 25° WNW
ALOS 2.2 11:05:27 10° N 11:10:02 58° WNW 11:14:36 10° SSW
NOSS 8 (H) 4.5 11:11:08 48° NNW 11:11:08 48° NNW 11:13:46 10° NNE
Cosmos 2297 Rocket 2.8 11:10:59 31° W 11:11:57 33° WSW 11:16:55 10° SSW
Abrixas rocket 3.8 11:12:14 20° N 11:12:14 20° N 11:14:33 10° NE
NOSS 3-2 (A) 4.4 11:05:33 12° NNW 11:12:35 66° NE 11:20:58 10° SE
Cosmos 773 Rocket 4.1 11:09:18 10° SW 11:14:29 55° WNW 11:19:41 10° N
Cosmos 1606 Rocket 4.0 11:10:17 10° S 11:14:41 63° E 11:19:05 10° NNE
SL-4 R/B 3.2 11:13:47 21° NNW 11:15:00 26° NNE 11:17:58 10° E
Cosmos 1295 Rocket 4.4 11:09:29 10° N 11:15:43 80° W 11:21:51 10° S
STARLINK-48 3.6 11:15:22 40° W 11:16:20 52° NNW 11:20:09 10° NE
Cosmos 2360 4.1 11:11:16 10° SSW 11:16:59 74° WNW 11:22:44 10° NNE
Cosmos 1726 Rocket 4.4 11:13:38 10° S 11:17:58 54° E 11:22:19 10° NNE
STARLINK-80 4.1 11:19:55 33° NW 11:20:30 35° NNW 11:24:01 10° NE
Cosmos 962 Rocket 4.5 11:17:10 10° N 11:23:28 83° W 11:29:47 10° S
Cosmos 2227 Rocket 3.0 11:22:00 25° WNW 11:23:34 29° WSW 11:28:20 10° SSW
COSMOS 2455 2.8 11:21:29 10° SSW 11:27:30 90° ESE 11:33:34 10° NNE
STARLINK-45 4.4 11:23:47 10° SSW 11:27:40 50° SE 11:31:35 10° ENE
STARLINK-70 4.4 11:25:16 10° SSW 11:29:08 49° SE 11:33:02 10° ENE
STARLINK-76 4.5 11:26:53 10° SSW 11:30:45 48° SE 11:34:39 10° ENE
STARLINK 4.4 11:28:32 10° SSW 11:32:25 50° SE 11:36:20 10° ENE
Cosmos 2263 Rocket 3.4 11:28:12 10° N 11:33:32 42° ENE 11:38:52 10° SE
CENTAUR R/B 3.9 11:26:00 10° NNW 11:33:49 52° NE 11:42:17 10° ESE
STARLINK-32 4.4 11:30:08 10° SSW 11:34:02 52° SE 11:37:57 10° ENE
Lacrosse 5 rocket 3.6 11:33:30 12° NNW 11:34:36 13° NNW 11:36:42 10° NNE
ATLAS 2AS CENTAUR R/B 3.4 11:27:48 10° SSW 11:35:40 73° ESE 11:43:40 10° NE
STARLINK-40 4.3 11:31:48 10° SW 11:35:43 54° SE 11:39:39 10° ENE
Cosmos 972 Rocket 4.4 11:29:41 10° NNW 11:36:08 90° SE 11:41:48 10° SSE
Cosmos 2278 4.0 11:31:39 10° SW 11:37:08 46° WNW 11:42:38 10° NNE
STARLINK-44 4.2 11:33:25 10° SW 11:37:21 56° SE 11:41:18 10° ENE
H-2A R/B 3.1 11:33:41 10° NNE 11:37:37 70° E 11:41:29 10° S
Cosmos 2181 Rocket 4.0 11:31:34 10° S 11:37:44 87° W 11:44:01 10° N
Cosmos 1626 4.0 11:39:11 14° WSW 11:39:11 14° WSW 11:40:17 10° SW
USA 32 4.0 11:32:42 10° N 11:37:58 80° W 11:43:12 10° S
Cosmos 1758 4.5 11:34:52 10° SW 11:38:00 22° WNW 11:41:09 10° NNW
STARLINK-37 4.0 11:35:10 10° SW 11:39:08 61° SE 11:43:06 10° ENE
STARLINK-36 4.1 11:36:43 10° SW 11:40:40 60° SE 11:44:38 10° ENE
ADEOS Rocket 2.8 11:36:20 10° SSE 11:41:50 85° ENE 11:47:25 10° NNW
STARLINK-68 3.9 11:38:30 10° SW 11:42:29 68° SE 11:46:30 10° NE
Cosmos 1538 Rocket 4.4 11:38:37 10° SW 11:43:41 42° WNW 11:48:44 10° N
Cosmos 2341 Rocket 4.0 11:37:29 10° NNW 11:43:42 64° W 11:49:48 10° S
STARLINK-63 3.9 11:40:04 10° SW 11:44:04 68° SE 11:48:03 10° NE
Cosmos 2369 4.5 11:39:55 10° WSW 11:44:55 30° NW 11:49:57 10° N
STARLINK-35 3.9 11:41:38 10° SW 11:45:37 67° SE 11:49:37 10° ENE
Cosmos 1953 3.0 11:42:20 10° SW 11:45:57 32° WNW 11:49:37 10° NNW
STARLINK-51 3.8 11:43:15 10° SW 11:47:15 69° SE 11:51:15 10° NE
USA 238 DEB 3.9 11:40:03 10° NW 11:47:18 78° WSW 11:54:44 10° SSE
USA 238 3.9 11:40:10 10° NW 11:47:24 79° WSW 11:54:50 10° SSE
Cosmos 1908 3.4 11:44:35 10° S 11:48:29 79° E 11:52:25 10° N
STARLINK-42 3.6 11:44:43 10° SW 11:48:32 75° SE 11:52:23 10° NE
STARLINK-64 3.6 11:45:06 10° SW 11:48:54 73° SE 11:52:46 10° NE
STARLINK-30 3.8 11:44:55 10° SW 11:48:55 71° SE 11:52:56 10° NE
STARLINK-67 4.3 11:48:54 16° WSW 11:49:47 19° SW 11:51:46 10° S
NOSS 2 (A) 3.8 11:48:35 17° NNW 11:50:17 86° NE 11:52:38 10° SE
Cosmos 1703 3.3 11:46:35 10° N 11:50:34 82° E 11:54:31 10° S
STARLINK-72 3.7 11:46:34 10° SW 11:50:34 74° SE 11:54:35 10° NE
SL-16 R/B 3.2 11:46:17 10° S 11:51:45 52° ESE 11:57:15 10° NNE
STARLINK-50 3.7 11:48:12 10° SW 11:52:12 76° SE 11:56:14 10° NE
STARLINK-59 3.6 11:49:56 10° SW 11:53:58 82° SE 11:58:00 10° NE
STARLINK-56 3.6 11:51:28 10° SW 11:55:29 81° SE 11:59:31 10° NE
Cosmos 2228 3.2 11:51:16 10° SSW 11:55:32 49° W 11:59:50 10° N
Okean-O 4.1 11:51:23 10° NNE 11:55:37 43° E 11:59:49 10° S
STARLINK-33 3.3 11:52:14 10° SW 11:55:54 90° SSE 11:59:36 10° NE
